Moab, UT

4:29 AM MST on December 15, 2019 (GMT -0700)
Canyonlands

Weather History for KCNY - June, 2019

Change the Weather History Date:

Wednesday, June 12, 2019

  Actual Average Record
Temperature  
Mean Temperature 73 °F 72 °F  
Max Temperature 90 °F 89 °F 104 °F (1956)
Min Temperature 55 °F 55 °F 43 °F (1929)
Degree Days  
Heating Degree Days 0 1  
Month to date heating degree days 6 14  
Since 1 June heating degree days 6 14  
Since 1 July heating degree days 5809 5574  
Cooling Degree Days 8 7  
Month to date cooling degree days 68 72  
Year to date cooling degree days 83 136  
Since 1 June cooling degree days 68 72  
Growing Degree Days 22 (Base 50)    
Moisture  
Dew Point 32 °F    
Average Humidity 26    
Maximum Humidity 43    
Minimum Humidity 9    
Precipitation  
Precipitation 0.00 in 0.01 in 0.61 in (1983)
Month to date precipitation T 0.19  
Year to date precipitation 5.98 3.39  
Sea Level Pressure  
Sea Level Pressure 29.93 in    
Wind  
Wind Speed 5 mph (West)    
Max Wind Speed 16 mph    
Max Gust Speed 22 mph    
Visibility 10 miles    
Events      
T = Trace of Precipitation, MM = Missing Value Source: NWS Daily Summary

Daily Weather History Graph

Daily Weather History Graph

Search for Another Location

Airport or City:

Astronomy

Jun. 12, 2019 Rise Set
Actual Time 5:53 AM MDT 8:44 PM MDT
Civil Twilight 5:21 AM MDT 9:16 PM MDT
Nautical Twilight 4:41 AM MDT 9:56 PM MDT
Astronomical Twilight 3:55 AM MDT 10:42 PM MDT
Moon 3:58 PM MDT (6/12) 3:06 AM MDT (6/12)
Length of Visible Light 15h 54m
Length of Day
14h 50m
Waxing Gibbous, 77% of the Moon is Illuminated
Jun 12
Waxing Gibbous
Jun 17
Full
Jun 25
Last Quarter
Jul 2
New
Jul 9
First Quarter

Hourly Weather History & Observations

Time (MDT) Temp. Dew Point Humidity Pressure Visibility Wind Dir Wind Speed Gust Speed Precip Events Conditions
12:53 AM 66.9 °F 32.0 °F 27% 29.96 in 10.0 mi Calm Calm - N/A   Clear
1:53 AM 62.1 °F 30.9 °F 31% 29.97 in 10.0 mi WSW 3.5 mph - N/A   Clear
2:53 AM 60.1 °F 30.9 °F 33% 29.98 in 10.0 mi Calm Calm - N/A   Clear
3:53 AM 62.1 °F 33.1 °F 34% 29.98 in 10.0 mi West 3.5 mph - N/A   Clear
4:53 AM 57.9 °F 33.1 °F 39% 30.00 in 10.0 mi Calm Calm - N/A   Clear
5:53 AM 55.9 °F 34.0 °F 44% 30.01 in 10.0 mi WSW 6.9 mph - N/A   Clear
6:53 AM 62.1 °F 35.1 °F 37% 30.00 in 10.0 mi South 3.5 mph - N/A   Clear
7:53 AM 73.0 °F 37.9 °F 28% 29.99 in 10.0 mi East 4.6 mph - N/A   Clear
8:53 AM 77.0 °F 37.9 °F 24% 30.01 in 10.0 mi ENE 9.2 mph - N/A   Clear
9:53 AM 80.1 °F 37.9 °F 22% 29.99 in 10.0 mi NE 11.5 mph 17.3 mph N/A   Clear
10:53 AM 82.9 °F 37.0 °F 19% 29.97 in 10.0 mi ENE 15.0 mph - N/A   Clear
11:53 AM 84.0 °F 35.1 °F 17% 29.96 in 10.0 mi SE 10.4 mph - N/A   Clear
12:53 PM 86.0 °F 34.0 °F 16% 29.96 in 10.0 mi NE 9.2 mph - N/A   Clear
1:53 PM 88.0 °F 33.1 °F 14% 29.94 in 10.0 mi Variable 3.5 mph - N/A   Clear
2:53 PM 89.1 °F 33.1 °F 14% 29.92 in 10.0 mi Variable 6.9 mph - N/A   Clear
3:53 PM 89.1 °F 30.9 °F 12% 29.89 in 10.0 mi Calm Calm - N/A   Clear
4:53 PM 89.1 °F 30.0 °F 12% 29.88 in 10.0 mi NNW 6.9 mph 17.3 mph N/A   Clear
5:53 PM 87.1 °F 25.0 °F 10% 29.87 in 10.0 mi NW 9.2 mph - N/A   Clear
6:53 PM 87.1 °F 21.9 °F 9% 29.84 in 10.0 mi West 6.9 mph - N/A   Clear
7:53 PM 84.0 °F 28.0 °F 13% 29.82 in 10.0 mi WSW 5.8 mph - N/A   Clear
8:53 PM 79.0 °F 30.0 °F 17% 29.82 in 10.0 mi SW 3.5 mph - N/A   Clear
9:53 PM 70.0 °F 32.0 °F 25% 29.84 in 10.0 mi Calm Calm - N/A   Clear
10:53 PM 71.1 °F 32.0 °F 24% 29.83 in 10.0 mi SW 5.8 mph - N/A   Clear
11:53 PM 68.0 °F 30.0 °F 24% 29.83 in 10.0 mi WNW 4.6 mph - N/A   Clear